Location: Heidgraben
(53.7081°N, 9.6576°E)
Time: 04:32:50
(UTC+00:00)

Cosmos 2228 Rocket - Pass Details

Date: 05 July 2020
Orbit: 618 x 652 km, 82.5° (Epoch: 06 August)

Event Time Altitude Azimuth Distance (km) Brightness Sun altitude
Rises 22:49:00 0° 353° (N) 2,991 8.7 -13.2°
Reaches altitude 10° 22:51:24 10° 1° (N) 2,074 7.2 -13.3°
Maximum altitude 22:55:44 39° 70° (ENE) 987 4.2 -13.3°
Enters shadow 22:59:19 14° 136° (SE) 1,802 5.0 -13.4°
